Погода в Мурманске

Россия / Мурманская область     68°58′14″N   33°04′29″E
темп.,
°C
ветер,
м/с
пор.,
м/с
влажн.,
%
обл.,
%
осадки,
мм/ч
давл.,
гПа
погр.,
м
27 января, чт
чт2700:00−18ююз339772 0.0 99928
03:00−17ююз329998 0.0 99824
06:00−15ююз339896 0.0 99733
09:00−12ююз2396100 0.0 99753
12:00−14ююз2397100 0.0 99730
15:00−15ююз2297100 0.0 99714
18:00−13ююз229698 0.0 99730
21:00−15ююз229771 0.0 99711
28 января, пт
пт2800:00−17ююз229998 0.0 99710
03:00−18юз229993 0.0 99810
06:00−18юз219997 0.0 99810
09:00−16юз119999 0.0 99912
12:00−13юз1197100 0.1 100032
15:00−9юз1196100 0.6 100068
18:00−8юз2296100 0.9 100078
21:00−7юз1197100 2.5 100067
29 января, сб
сб2900:00−6з1197100 1.6 99946
03:00−4сз1298100 3.3 99990
06:00−4ссв3897100 1.9 998412
09:00−4ссв2789100 3.0 997340
12:00−8сз2288100 0.1 99635
15:00−9ссз1191100 0.3 99511
18:00−10юз119398 0.3 99411
21:00−12ююз119779 0.4 99313
30 января, вс
вс3000:00−16ююз1199100 0.1 99310
03:00−16ююз1199100 0.1 99312
06:00−16ююз1198100 0.0 99414
09:00−15ююз1197100 0.0 99510
12:00−14ююз1197100 0.0 99716
15:00−13ююз0096100 0.0 99910
18:00−14юз0096100 0.0 10019
21:00−14юз1197100 0.0 100310
31 января, пн
пн3100:00−13зюз1196100 0.0 10049
03:00−12зюз1199100 0.3 100525
06:00−10з1196100 0.6 100611
09:00−12сз2291100 0.6 100811
12:00−15зсз229057 0.0 100910
15:00−17з219626 0.0 10109
18:00−20зюз2210052 0.0 10119
21:00−21юз2210067 0.0 101111